Погода Грозный

Погода Грозный : погода сейчас, прогноз погоды и архив. Всё, что Вы хотите узнать о погоде Грозный!

Поиск расширенной информации на нашем сайте:

Другие новости

Новости СМИ2

Главная страница сайта

Новости сайта

02.10.2013

Напоминаем, что на нашем новом сайте вы можете получить высокодетализированные прогнозы погоды по пунктам России, СНГ и мира (включающие важные для авиации метеовеличины, такие как направление и скорость ветра, видимость, явления погоды, количество и форма облачности, нижняя и верхняя граница облачности), а также ознакомиться с разнообразными материалами по авиационной метеорологии и подборкой полезных ссылок на эту тему.

Сайт Метеоцентр.Азия посвящён разработке технологий оптимизации авиаметеорологического обслуживания, включая проектирование и перспективное создание нескольких автоматизированных авиаметеорологических систем:
- система выпуска высокодетальных прогностических карт явлений погоды для нижнего воздушного пространства по России и ближнему зарубежью;
- система верификации прогнозов TAF (выпускаемых синоптиками официальных АМСГ РФ и ближнего зарубежья) и AUTOTAF (выпускаемых сайтом Метеоцентр.Азия) - выявление ошибок, онлайн-сопоставление с фактической погодой METAR, автоматическое внесение коррективов в прогнозы при резком отклонении фактической погоды от прогноза, подсчёт оправдываемости прогнозов по элементам и в целом;
- система обработки, анализа и отображения авиаметеорологической информации для применения провайдерами метеорологической информации.

Рекомендуем: Строительство загородных домов из газобетона, проекты домов из пеноблока и газобетона.

Погода Грозный - сегодня

Время (UTC), дата Ветер
(°,м/с) 
Видим.   Явления Облачность Т
(°С)
Тd
(°С)
f(%) Тe
(°С)
Pmin
(гПа)
dP
(гПа)
Po
(мм)
O2
(г/м3)
Тmin Tmax R s Состояние
почвы
09 18.01.17 050 (СВ) 0200 м  туман  ?/?  
+0.1 +0.1 100 +1  1028.2  -0.2  747  301           
12 18.01.17 050 (СВ) 4000 м  в посл. час туман{морось}  10/10 300 м 
[St]
+0 -0 100 +1  1028  -0.1  747  301           
15 18.01.17 050 (СВ) 4000 м  слаб. переохл. дождь (гололёд){морось} [диам. гололёда 0 мм]  10/10 300 м 
[Ns]
-0.5 -0.5 100 1029.2  1.1  748  302    +0.2     
18 18.01.17 060 (СВ) 0500 м  слаб. снег{дождь}  ?/?  
-0.8 -0.8 100 1029.3  0.1  748  302           
21 18.01.17 060 (СВ) 0500 м  слаб. снег  ?/?  
-1.7 -1.7 100 -1  1028.9  -0.5  747  303           
00 19.01.17 040 (СВ) 4000 м  в посл. час туман{снег}  10/10 300 м 
[St]
-2.4 -2.4 100 -2  1029.2  0.2  747  304           
03 19.01.17 060 (СВ) 4000 м  дымка  10/10 300 м 
[St]
-3.1 -3.2 99 -4  1030.1  0.7  748  305  -3.1    сухой снег
50-90% 
06 19.01.17 060 (СВ) 4000 м  дымка  10/10 300 м 
[St]
-3.2 -3.4 99 -4  1031.4  1.4  749  306  -3.3         
09 19.01.17 070 (В) 4000 м  дымка  10/10 300 м 
[St]
-3 -3.1 99 -4  1031.4  -0.2  749  305           
12 19.01.17 090 (В) 4000 м  дымка  10/10 300 м 
[St]
-3.1 -3.3 99 -3  1022.9  0.5  749  306           
15 19.01.17 050 (СВ) 4000 м  слаб. снег  10/10 300 м 
[Ns]
-3.5 -3.6 99 -3  1032.6  0.6  750  306    -2.8  0.2     
18 19.01.17 070 (В) 10 км  {снег}  10/10 600 м 
[Sc]
-4.6 -4.9 98 -4  1033  0.3  750  308           
21 19.01.17 100 (В) 4000 м  дымка  10/10 300 м 
[St]
-5.7 -6.1 97 -5  1032.5  -0.5  749  309           
00 20.01.17 080 (В) 10 км    10/10 600 м 
[Sc]
-6.2 -6.6 97 -6  1031.8  -0.8  749  309           
03 20.01.17 100 (В) 10 км    9/9 600 м 
[Sc]
-7.2 -7.7 96 -7  1030.8  -0.2  749  311  -7.3    сухой снег
50-90% 
06 20.01.17 080 (В) 4000 м  дымка  10/10 300 м 
[St]
-6.6 -7.1 96 -6  1031.5  -0.1  749  310  -7.9         
09 20.01.17 040 (СВ) 4000 м  дымка  10/10 300 м 
[St]
-5.9 -6.4 96 -6  1030.2  -1.2  748  309           
12 20.01.17 240 (ЮЗ) 4000 м  дымка  10/10 300 м 
[St]
-5.2 -5.7 96 -5  1028.4  -1.7  746  307           
15 20.01.17 280 (З) 10 км    10/10 600 м 
[Sc]
-5.6 -5.9 98 -5  1027.9  -0.5  746  308    -5       
18 20.01.17 260 (З) 4000 м  дымка  10/10 300 м 
[St]
-5.6 -6 97 -7  1027.8  -0.1  746  308           
21 20.01.17 250 (З) 4000 м  дымка  10/10 200 м 
[St]
-4.9 -5.2 98 -4  1026.7  -0.9  745  306           
00 21.01.17 200 (Ю) 4000 м  дымка  10/10 300 м 
[St]
-5.1 -5.4 98 -5  1025.6  -0.2  745  307           
03 21.01.17 тихо ()   0500 м  туман  ?/?  
-5.9 -6.3 97 -6  1025.6  -0.1  745  308  -6      сухой снег
50-90% 
06 21.01.17 тихо ()   10 км  в посл. час туман  9/4 600 м средняя 
[Sc|As trans]
-4.3 -4.6 98 -4  1026.8  0.6  746  306  -6.2         
09 21.01.17 тихо ()   20000 м    5/0 средняя 
[Ac lent]
-0.3 -0.9 96 -0  1025.2  -1.3  745  300           
Время (UTC), дата Ветер
(°,м/с) 
Видим.   Явления Облачность Т
(°С)
Тd
(°С)
f(%) Тe
(°С)
Pmin
(гПа)
dP
(гПа)
Po
(мм)
O2
(г/м3)
Тmin Tmax R s Состояние
почвы

Для получения пояснительной информации подведите курсор к названию столбца.

ПОГОДА Грозный - архив

Всё, что Вы хотите узнать о погоде Грозный - удобно и подробно!

Выберите нужную дату (начиная с 1 января 2015* года) и нажмите кнопку "Найти".
Будут отображены архивные сводки погоды по пункту Грозный, начиная с указанной даты.


Отображать данные в формате CSV (для использования в таблицах Excel)


Внимание! Наш архив погоды предназначен исключительно для личного некоммерческого использования в познавательных целях. Если Вам необходимы официальные справки о состоянии погоды (для производственных, юридических, коммерческих и т.п. целей), обращайтесь в органы Росгидромета.

*Примечание: данная дата относится к архиву по метеостанциям СССР (Россия, СНГ, Балтия).
Архив по метеостанциям Зарубежной Европы и Азии (кроме Китая) хранится 10 дней, по другим регионам земного шара (Китай, Африка, Америка, Австралия, Океания) - 1 день.

Грозный - район местоположения метеостанции


Название, широта, долгота, высота метеостанции:
Грозный 43.3°ш. 45.7°д. 163 м над ур. моря [Российская Федерация]

Дополнительная информация

В oтличие oт бoльшинства пoгoдных сайтoв мы публикуем пoдрoбную метеoинфoрмацию в детальнoм прoфессиoнальнoм фoрмате.

Характеристики температуры и влажнoсти вoздуха измеряются на высoте 2 м в тени вдали oт зданий и деревьев.
Скoрoсть ветра измеряется на высoте 10 м (на урoвне рoста челoвека скoрoсть ветра ниже в 1.5-2 раза). Если метеoстанция нахoдится в гoрoде или в лесу, тo скoрoсть ветра занижена на 2-4 м/с пo сравнению с oткрытым местoм. Скoрoсть ветра над акватoриями крупных рек и oзёр, а также на вершинах хoлмoв на 2-5 м/с выше, чем в oбычных услoвиях.
Атмoсфернoе давление в разных тoчках местнoсти мoжет значительнo oтличаться oт давления на метеoстанции, в зависимoсти oт услoвий рельефа (при пoдъёме на 10 м давление пoнижается примернo на 1 мм рт.ст.).